Dewpoint
25 26 25 23 24 25 21 20 18 11 15 11 19 22 26 34 36 37 38 37 36 35 32 28 24 25 36 30 31 24 22 21 21 24 26 26 27 26 27 27 27 28 28 29
28 28 26 24 23 23 24 22 22 19 19 21 24 28 31 35 36 36 37 36 35 35 33 29 25 29 30 30 26 23 22 22 23 24 25 26 26 27 26 25 26 27 26 29
20 25 25 21 24 21 21 24 24 20 21 24 28 29 30 33 35 36 36 36 35 35 33 29 27 29 28 27 24 23 21 22 22 24 25 24 24 25 25 25 26 26 27 30
23 20 11 14 23 23 21 21 21 22 22 25 26 32 35 34 35 36 36 36 36 35 33 30 27 28 27 23 21 21 21 22 22 21 22 22 24 25 25 25 25 25 25 26
24 18 15 6 17 19 23 15 22 21 21 26 34 36 35 36 37 37 37 37 37 35 33 31 28 25 22 20 20 21 20 18 19 23 22 22 23 25 26 25 25 23 24 25
22 18 12 17 23 33 30 19 24 29 30 33 35 32 21 36 38 38 38 38 35 31 29 25 22 22 21 20 20 16 20 21 21 21 22 23 24 24 26 26 23 22 23 26
26 24 21 21 23 32 19 17 29 33 34 35 34 30 36 36 38 38 38 36 32 25 22 22 22 22 20 18 14 20 21 21 21 23 24 24 26 27 26 25 22 25 26 26
26 22 17 23 31 26 30 34 33 33 35 37 36 38 36 37 38 38 35 30 25 22 22 22 22 20 13 13 20 22 23 23 24 26 27 25 27 27 27 25 23 26 29 27
25 24 26 28 30 34 35 34 34 35 34 37 37 38 36 36 35 33 27 23 21 22 23 23 19 17 15 18 24 24 24 25 26 27 27 26 26 26 25 24 23 23 22 23
28 25 27 28 30 30 31 32 33 33 34 36 37 37 37 35 30 26 22 18 19 27 31 20 19 21 22 24 25 25 25 25 26 25 26 27 28 27 26 24 23 22 22 21
30 29 29 29 31 32 32 35 37 37 38 40 40 39 38 32 26 21 22 30 33 29 17 17 21 22 23 25 26 25 25 26 25 25 25 25 26 27 28 24 23 24 23 22
28 30 31 31 33 35 37 38 39 40 41 40 40 39 35 25 22 30 35 34 26 21 20 20 25 26 27 26 26 28 27 26 26 26 26 26 26 27 27 24 25 24 24 25
34 36 37 37 39 40 40 37 35 35 35 30 28 27 27 33 36 36 35 29 22 21 26 28 29 29 27 26 28 28 27 26 26 26 27 27 27 26 26 28 26 26 26 26
40 41 39 36 35 33 32 32 33 32 32 33 35 36 35 34 32 30 28 25 28 30 30 30 29 27 26 27 27 27 27 27 27 27 28 28 28 28 28 27 26 27 28 25
34 38 35 32 31 32 34 34 34 34 34 34 34 34 32 31 29 30 30 30 31 31 30 29 26 24 24 27 27 27 27 27 29 29 29 29 29 29 29 27 27 26 24 24
33 32 32 32 33 35 35 34 33 33 33 32 31 32 32 31 27 26 29 30 30 28 27 27 27 27 27 28 27 26 26 27 27 26 27 28 30 29 27 28 28 27 25 23
34 32 33 33 34 33 33 32 30 26 31 33 34 33 30 27 29 28 28 29 30 30 31 30 28 27 28 29 27 26 26 26 27 27 26 26 28 27 26 28 28 27 26 28
35 36 35 33 32 30 30 32 34 33 30 29 28 28 27 28 28 30 31 30 29 28 29 30 31 29 29 29 28 28 29 30 30 30 28 27 27 28 29 29 29 29 28 27
33 32 31 31 32 31 27 27 28 28 29 29 28 28 29 28 29 29 29 28 27 27 27 31 30 29 29 29 29 28 29 30 29 28 27 27 28 29 29 29 29 29 29 28
28 26 24 26 28 29 29 29 30 29 29 29 29 30 29 31 29 29 29 28 30 30 31 30 30 31 30 28 28 25 28 28 27 27 28 28 29 29 29 28 28 29 30 29
26 29 29 28 28 29 29 30 30 29 29 29 28 28 28 29 30 30 29 29 29 32 31 30 30 30 29 27 26 29 29 28 27 28 29 29 29 28 29 29 29 29 29 29
29 29 28 29 29 30 30 29 28 28 28 28 28 28 27 27 27 28 29 29 31 31 31 31 31 31 30 29 29 29 28 26 27 28 29 28 29 28 27 28 27 28 29 29
29 29 30 29 29 28 28 25 25 25 25 25 25 25 24 25 25 25 24 27 28 29 30 31 32 31 31 30 30 30 28 26 25 25 24 24 23 23 22 23 24 25 26 26
29 28 28 27 26 23 21 18 20 21 22 22 23 24 24 23 24 25 26 26 27 28 29 30 31 30 29 29 29 27 25 23 21 20 20 19 20 19 19 18 18 19 19 20
27 25 24 23 20 17 16 15 15 16 17 17 18 18 19 19 20 23 24 23 23 24 27 29 25 23 24 23 21 20 20 19 17 16 16 16 16 16 15 16 16 16 15 16
23 20 20 18 16 14 14 14 14 14 14 14 14 15 16 17 19 19 20 20 22 19 19 18 16 17 17 16 16 15 15 15 14 13 12 12 12 12 12 12 12 13 14 15
16 15 15 15 13 12 13 12 13 13 14 14 13 14 15 15 16 14 14 15 15 14 15 14 13 12 12 12 12 12 12 12 9 8 8 8 8 8 9 9 10 11 12 13
Wind_Speed
2 1 3 5 9 16 19 17 11 10 13 9 8 10 11 10 14 18 21 22 23 22 20 19 18 18 8 10 9 10 8 8 8 7 8 10 11 12 14 15 15 14 14 12
4 2 3 8 12 14 19 19 19 22 24 17 11 8 10 13 17 20 21 23 23 22 20 20 20 17 12 10 11 9 8 9 8 8 10 11 13 12 14 15 14 13 14 13
4 2 3 10 20 21 16 14 17 18 20 5 6 10 11 14 17 20 21 23 24 22 20 18 18 14 11 11 9 8 8 8 8 9 11 13 13 13 14 14 13 12 12 10
1 2 5 2 2 3 16 20 19 22 15 8 6 4 6 10 16 19 20 22 21 18 15 15 11 9 8 8 8 7 6 6 8 11 12 13 13 13 14 13 11 10 9 6
4 6 8 13 4 4 6 8 6 16 15 8 4 4 10 12 15 17 19 19 18 15 14 12 11 10 8 8 6 5 6 7 8 9 12 13 14 14 14 12 11 11 7 6
4 4 5 2 3 1 2 8 6 4 5 9 8 6 5 10 15 15 16 17 15 16 15 13 12 10 11 9 6 5 5 6 8 10 12 13 14 14 11 10 10 8 7 6
7 7 7 3 1 3 3 3 6 4 6 10 9 10 3 3 12 15 16 17 15 16 15 12 10 8 6 4 4 3 5 7 9 10 10 13 13 10 10 10 9 7 6 7
4 4 6 5 6 3 4 4 6 7 7 11 12 4 4 3 9 15 15 15 15 14 14 13 11 7 5 5 2 5 7 9 10 8 9 10 9 9 11 10 8 7 6 7
8 2 3 8 7 4 4 9 10 10 8 11 12 12 9 7 9 13 16 15 15 15 11 5 7 4 3 3 4 6 9 10 10 8 10 10 11 12 12 9 8 7 7 9
1 2 8 9 11 13 12 14 14 13 14 13 16 14 11 9 12 13 13 13 13 11 6 8 4 3 2 4 6 8 10 9 8 9 8 10 12 12 12 10 8 7 9 10
6 14 9 7 7 7 8 10 12 12 10 11 10 10 7 10 12 12 14 10 9 3 4 3 2 1 2 5 7 9 8 9 9 9 9 11 10 12 14 10 7 8 9 8
8 10 6 9 9 12 12 12 11 10 8 6 5 1 7 11 12 12 11 10 2 3 3 2 1 3 5 6 7 8 9 10 9 10 10 10 11 11 13 14 7 9 11 11
7 14 14 13 7 12 10 11 11 11 11 12 15 16 18 16 13 13 4 2 6 4 2 3 4 6 6 7 7 8 10 12 11 11 10 12 12 11 12 10 15 14 14 15
9 10 2 13 6 11 13 15 19 20 20 21 21 18 15 15 9 5 4 4 4 4 5 6 7 9 7 7 8 10 11 11 12 12 13 13 13 14 12 12 13 12 14 14
13 9 7 9 12 13 14 15 19 18 17 17 16 16 11 7 5 6 7 7 7 7 9 9 10 9 7 7 10 11 11 12 11 12 13 14 14 13 14 13 13 13 12 10
7 10 12 14 16 18 19 17 19 14 11 8 7 6 4 5 7 7 7 7 6 8 9 8 10 11 10 11 12 11 10 10 12 15 14 14 14 13 14 14 13 13 13 13
8 9 14 17 17 17 16 13 12 8 4 2 4 6 6 5 6 7 7 6 9 13 13 12 16 12 11 12 13 13 13 13 13 14 14 15 14 15 15 15 16 14 14 11
17 16 17 17 15 12 8 6 8 8 7 6 6 5 5 5 8 10 9 9 11 13 15 15 14 13 11 11 13 14 15 14 13 15 14 14 15 15 15 16 16 16 13 12
17 16 13 10 7 6 6 6 6 6 7 7 7 8 7 8 9 9 9 11 13 14 16 8 9 9 10 10 11 13 13 14 16 16 15 15 14 14 14 15 15 16 13 14
11 9 8 9 9 8 7 7 7 6 6 6 7 8 11 10 8 10 9 13 16 15 14 14 11 12 12 11 11 13 13 13 15 15 15 16 14 14 12 14 15 15 15 15
7 7 7 8 8 9 8 8 9 11 10 9 10 11 13 15 13 11 14 15 16 12 13 13 13 14 13 12 12 12 10 13 16 17 16 14 13 12 11 12 12 13 14 15
5 6 6 7 9 10 11 11 11 11 13 13 13 12 13 14 16 16 13 16 19 16 16 15 14 15 15 11 13 11 12 14 13 13 12 12 11 9 10 11 12 12 13 14
7 7 8 9 9 8 9 12 11 11 11 11 13 14 14 14 13 16 18 14 16 18 19 18 16 17 17 15 14 12 10 10 12 12 12 12 13 14 15 16 15 15 14 14
10 10 10 8 8 9 10 12 12 10 10 11 11 12 15 17 16 14 15 19 21 22 22 21 18 17 15 13 7 5 4 6 8 8 9 9 10 11 12 13 14 14 15 17
9 8 7 6 6 8 9 11 10 10 12 13 15 15 17 17 18 20 19 21 23 24 24 25 5 6 5 6 5 5 5 5 6 7 8 9 10 11 13 13 14 16 17 18
6 6 6 8 7 7 8 9 11 12 13 14 14 15 17 17 18 19 19 22 20 20 17 15 14 13 11 9 8 8 7 7 8 8 9 10 11 12 13 15 16 16 17 19
8 6 5 5 7 7 8 9 10 12 13 14 15 15 16 17 17 17 18 17 17 16 14 13 13 13 12 11 10 10 9 9 9 10 10 11 12 13 14 16 17 18 19 19
Wind_Direction
229 156 215 244 226 208 215 230 223 266 253 269 250 241 238 215 202 201 196 190 191 190 186 185 183 189 217 221 206 209 224 249 277 277 276 289 295 306 318 315 304 301 301 300
235 225 261 260 245 234 232 243 252 261 270 279 259 254 223 206 201 205 202 199 195 195 192 191 191 195 215 214 203 208 232 258 282 277 278 291 296 300 306 311 309 305 296 288
247 339 268 277 246 229 229 232 242 251 261 240 205 230 230 218 212 210 207 201 199 199 199 196 195 205 212 203 195 210 241 270 280 278 282 291 291 293 308 313 310 307 297 294
220 154 245 275 170 250 240 252 246 257 261 261 271 252 260 230 216 215 210 206 204 201 196 195 197 200 205 194 199 218 251 275 287 287 288 291 291 294 304 306 297 300 305 277
189 219 307 285 210 209 204 283 290 259 272 245 244 257 246 221 221 220 212 208 203 198 185 169 180 172 176 191 204 226 269 290 294 294 293 295 294 297 297 295 290 290 283 251
164 224 258 23 64 186 212 283 17 296 272 206 196 245 282 192 207 210 206 199 189 174 165 165 156 146 190 191 211 261 276 287 291 290 292 295 296 295 289 283 283 284 267 242
205 236 277 258 236 170 248 357 353 295 213 191 209 250 345 215 196 199 193 188 171 167 162 148 141 168 188 210 252 257 272 287 293 295 298 298 296 286 279 281 282 271 241 227
153 207 270 165 144 226 355 337 318 306 245 226 253 300 275 241 200 189 179 169 164 152 143 131 135 188 215 252 231 276 291 295 295 295 299 300 288 284 276 269 272 250 232 238
212 248 129 197 280 306 304 294 294 294 289 261 264 256 245 217 181 176 170 156 147 132 119 128 171 168 246 284 279 297 298 297 292 293 295 304 291 285 278 265 262 253 240 257
262 224 251 255 266 275 275 277 291 284 280 277 270 272 241 201 169 163 153 141 123 98 131 193 183 114 276 270 278 286 282 281 291 298 310 308 305 283 271 262 251 249 265 278
250 282 283 269 279 298 309 305 298 298 290 298 295 282 229 193 161 138 111 109 79 129 187 183 175 230 259 287 294 283 281 281 292 300 306 303 288 268 268 254 245 258 271 283
278 343 315 311 344 329 313 325 331 324 320 353 321 240 145 127 117 107 99 89 137 229 221 239 290 302 311 302 285 276 280 284 296 306 305 298 290 283 233 247 238 238 251 256
294 311 300 305 350 9 24 25 37 48 57 68 65 91 108 109 87 83 77 251 223 215 241 266 288 299 291 271 255 263 279 287 296 295 293 290 291 278 276 237 236 239 241 247
10 338 108 33 33 48 68 73 76 78 82 88 91 82 71 73 73 95 214 237 238 251 253 251 265 272 272 260 263 272 277 283 285 288 292 286 283 278 268 266 272 263 232 238
15 40 78 85 78 76 81 88 87 82 79 82 85 95 104 131 199 234 240 233 234 245 252 254 260 268 266 259 266 279 290 292 295 292 288 279 276 274 270 271 262 259 267 250
66 79 88 89 89 91 87 86 88 88 97 125 137 152 180 218 233 241 239 232 238 260 263 264 257 262 263 261 268 281 283 267 270 287 289 276 265 267 275 262 250 252 259 268
114 89 101 97 98 98 98 103 106 108 108 28 341 337 333 321 300 278 273 271 262 266 266 262 258 265 267 261 262 271 284 290 281 281 288 287 276 280 279 265 254 246 255 248
101 108 114 116 116 115 119 67 26 12 12 354 351 349 334 309 296 295 291 294 289 281 269 259 253 258 264 271 271 281 285 280 278 278 279 287 283 281 275 271 260 247 246 255
111 112 107 88 64 58 49 39 25 3 0 358 349 342 321 307 301 301 306 297 289 284 289 259 250 247 264 267 270 279 275 279 284 283 284 282 277 269 272 269 263 250 247 252
94 83 71 65 59 55 55 38 23 31 19 3 343 338 334 327 318 312 300 284 281 279 290 286 278 270 265 271 265 279 284 286 284 279 275 276 276 274 276 278 266 258 248 245
83 72 65 67 70 61 52 38 26 19 4 3 356 342 328 317 316 304 301 298 301 299 283 278 275 272 263 267 272 273 277 281 285 280 276 280 285 280 280 271 272 269 262 258
98 99 93 88 80 68 49 37 26 17 9 1 356 350 342 335 332 322 308 289 299 306 303 287 279 270 264 272 266 261 274 286 297 314 310 305 290 300 306 304 300 292 282 275
86 85 78 66 58 50 42 28 15 13 4 358 351 344 335 325 322 320 318 328 325 315 307 295 285 286 279 269 255 243 266 289 297 304 309 309 311 311 308 302 302 307 310 306
94 78 72 64 56 43 24 8 358 358 349 334 346 341 337 332 324 320 321 314 305 307 301 291 283 283 288 276 255 253 263 297 304 313 316 317 319 318 314 313 311 312 309 306
89 83 67 56 44 26 10 358 343 351 351 348 345 342 342 336 323 323 330 323 322 320 315 305 342 8 349 351 355 355 344 349 340 328 331 326 323 321 316 314 312 310 308 303
91 71 71 58 40 21 5 353 349 348 344 340 337 337 335 333 334 333 333 337 345 4 8 11 19 7 10 18 8 10 4 359 349 348 338 332 329 321 317 315 311 309 307 304
80 56 54 49 30 10 2 353 346 342 343 344 333 340 343 345 352 357 356 358 360 1 2 7 12 14 9 6 9 7 3 2 4 350 340 336 330 324 320 316 312 309 306 304